Location: Andrus Mine
(37.7361°N, 107.7265°W)
Time: 00:49:27
(UTC+00:00)

Daily predictions for brighter satellites

Satellite Brightness Start Highest point End
(mag) Time Altitude Azimuth Time Altitude Azimuth Time Altitude Azimuth
SL-08 R/B 4.3 00:13:48 10° N 00:18:20 50° WNW 00:22:48 10° SSW
Cosmos 2082 Rocket 3.2 00:14:32 10° SSE 00:19:18 28° ESE 00:24:04 10° NE
CZ-2D R/B 4.4 00:18:47 10° ESE 00:21:49 23° ENE 00:24:52 10° NNE
CZ-4B R/B 3.0 00:19:35 10° SSE 00:23:45 84° WSW 00:27:45 10° NNW
Cosmos 1606 4.4 00:21:05 10° SW 00:24:32 34° WNW 00:28:00 10° NNW
Cosmos 1763 Rocket 3.4 00:19:50 10° SSW 00:24:52 87° ESE 00:29:59 10° NNE
Cosmos 1842 Rocket 4.2 00:20:36 10° SSW 00:24:58 60° W 00:29:25 10° N
COSMOS 2455 3.3 00:19:43 10° S 00:25:19 42° ESE 00:30:58 10° NE
Cosmos 1805 Rocket 4.3 00:22:30 10° NNE 00:26:21 30° ENE 00:30:11 10° SE
Cosmos 2221 3.7 00:24:22 10° SSW 00:28:27 44° W 00:32:33 10° N
Sich 1 4.0 00:25:13 10° NNE 00:28:47 25° ENE 00:32:21 10° SE
CORIOLIS 4.3 00:24:01 10° SSE 00:29:15 56° ENE 00:34:33 10° N
Cosmos 841 Rocket 4.0 00:24:58 10° S 00:29:44 39° ESE 00:34:30 10° NE
AQUARIUS 4.3 00:27:35 10° SSE 00:31:57 55° ENE 00:36:20 10° N
COSMOS 2406 3.3 00:28:55 10° S 00:34:37 68° ESE 00:40:19 10° NNE
NOAA 6 4.0 00:29:37 10° SSE 00:34:44 71° ENE 00:39:51 10° N
Cosmos 1933 3.3 00:31:56 10° S 00:35:57 65° E 00:39:57 10° NNE
Cosmos 1937 Rocket 4.1 00:31:33 10° N 00:36:24 34° ENE 00:41:11 10° SE
MOS 1-B Rocket 4.4 00:30:39 10° NNE 00:36:27 48° E 00:43:01 10° S
USA 276 3.2 00:33:56 10° NNW 00:36:40 27° NNE 00:38:58 13° E
Nadezhda 4 Rocket 4.2 00:33:38 10° N 00:39:59 81° W 00:46:18 10° S
CZ-4C R/B 4.0 00:34:41 10° N 00:40:21 24° NE 00:46:39 10° E
Cosmos 1500 4.0 00:40:20 10° NNE 00:43:35 27° ENE 00:46:48 10° SE
CZ-2C R/B 3.7 00:43:16 10° SSE 00:44:25 11° SSE 00:45:33 10° SE
PSLV R/B 3.8 00:41:13 10° SSE 00:44:45 49° ENE 00:48:21 10° N
Cosmos 1833 Rocket 2.9 00:39:19 10° SSW 00:44:54 75° WNW 00:50:33 10° NNE
Cosmos 990 Rocket 3.9 00:41:01 10° NNW 00:46:14 82° ENE 00:51:23 10° SSE
ISS -1.4 00:45:29 10° N 00:46:23 11° NNE 00:47:13 10° NNE
ARGOS 3.9 00:41:55 10° SE 00:46:28 28° ENE 00:51:01 10° N
Cosmos 2084 3.7 00:44:07 10° NNW 00:48:21 50° NE 00:52:45 10° SE
PAYLOAD B 4.3 00:44:04 10° SSE 00:49:31 56° ENE 00:55:00 10° N
BREEZE-M DEB (TANK) 3.8 00:44:14 10° NW 00:52:24 82° SW 00:55:24 10° SE
Cosmos 1092 Rocket 4.0 00:47:41 10° N 00:54:04 76° E 01:00:22 10° S
COSMO-SKYMED 1 2.8 00:54:05 10° NNE 00:58:18 48° E 01:02:28 10° S
ATLAS CENTAUR R/B 4.0 00:47:10 10° WSW 00:58:29 50° NW 01:03:06 10° NNE
MOS 1-B 4.3 00:53:41 10° SSE 00:59:22 64° ENE 01:05:04 10° N
CZ-4B R/B 3.4 00:54:25 10° SE 00:59:37 46° ENE 01:04:43 10° N
Cosmos 1428 Rocket 4.4 00:53:55 10° N 01:00:03 73° E 01:06:12 10° SSE
Meteor 1-26 Rocket 4.3 00:59:04 10° S 01:04:58 86° E 01:11:02 10° N
Cosmos 2360 4.1 01:00:53 10° NNW 01:06:37 69° ENE 01:12:17 10° SSE
Cosmos 2142 Rocket 4.5 01:01:07 10° S 01:07:07 59° E 01:13:10 10° NNE
Cosmos 1939 Rocket 4.5 01:03:30 10° SSW 01:07:22 39° W 01:11:14 10° NNW
Cosmos 858 Rocket 4.5 01:02:43 10° N 01:07:59 61° ENE 01:13:09 10° SSE
Cosmos 1633 Rocket 3.7 01:06:54 10° NNE 01:10:50 32° ENE 01:14:47 10° SE
CZ-2C R/B 2.5 01:06:48 10° NNE 01:11:59 70° ESE 01:17:07 10° S
Cosmos 921 Rocket 4.3 01:08:58 10° SSE 01:11:29 21° ESE 01:11:29 21° ESE
Okean O Rocket 1.9 01:08:35 10° SE 01:12:48 44° ENE 01:17:03 10° N
Cosmos 1666 3.2 01:10:00 10° NNE 01:13:24 33° ENE 01:16:46 10° SE
Cosmos 1570 Rocket 4.1 01:08:36 10° S 01:13:40 52° ESE 01:17:23 18° NNE
Cosmos 1627 Rocket 4.5 01:08:03 10° N 01:14:14 87° W 01:20:20 10° S
GPS 2-04 Rocket1 2.9 01:10:22 10° W 01:14:27 66° S 01:16:26 28° ESE
USA 229 DEB 3.9 01:09:20 10° NNW 01:16:51 86° ENE 01:24:46 10° SSE
USA 229 3.9 01:09:26 10° NNW 01:16:57 85° ENE 01:24:51 10° SSE
Cosmos 2279 Rocket 3.9 01:12:05 10° S 01:18:15 69° E 01:24:25 10° NNE
Cosmos 1812 2.6 01:18:36 10° S 01:22:26 87° E 01:25:41 14° N
Meteor 2-16 Rocket 4.4 01:17:17 10° N 01:23:20 60° E 01:29:21 10° SSE
Cosmos 1814 Rocket 3.9 01:18:11 10° S 01:23:25 76° ESE 01:27:31 17° NNE
Cosmos 540 Rocket 4.4 01:18:56 10° SW 01:23:49 46° WNW 01:28:44 10° N
Cosmos 1151 Rocket 2.9 01:20:51 10° S 01:25:08 82° E 01:29:11 12° N
CZ-4C R/B 3.1 01:29:32 50° SE 01:29:32 50° SE 01:32:23 10° S
USA 234 3.4 01:23:02 10° SE 01:29:34 76° SW 01:36:08 10° NW
Cosmos 1666 Rocket 3.4 01:30:42 10° N 01:35:10 79° E 01:39:33 10° S
Meteor 1-14 Rocket 4.2 01:31:21 10° N 01:37:12 79° E 01:43:08 10° SSE
Cosmos 1328 Rocket 3.4 01:32:55 10° S 01:37:20 78° E 01:39:44 27° NNE
SL-08 RB Rocket 3.7 01:35:15 10° SSE 01:39:49 61° ENE 01:44:23 10° N
Cosmos 2208 Rocket 3.9 01:40:04 10° SSW 01:45:25 83° ESE 01:48:04 31° NNE
H-2A R/B 3.1 01:40:52 10° S 01:45:53 46° W 01:50:49 10° NNW
Cosmos 1900 4.1 01:41:25 10° SSW 01:46:16 80° ESE 01:47:23 53° NE
NOSS 2-2 (D) 4.5 01:41:40 10° NNW 01:47:21 71° ENE 01:55:17 10° SE
BREEZE M DEB (TANK) 4.4 01:32:19 10° NW 01:50:50 72° SW 01:54:26 22° SE
Cosmos 1697 Rocket 3.8 01:45:51 10° NW 01:51:09 44° WSW 01:56:25 10° S
Cosmos 2369 4.0 01:47:06 10° NNW 01:52:48 69° WSW 01:58:27 10° SSE
Meteor 1-5 Rocket 4.3 01:48:04 10° N 01:54:03 84° W 01:59:56 10° S
Cosmos 1980 Rocket 2.1 01:49:13 10° NNW 01:54:54 86° WSW 02:00:31 10° SSE
Cosmos 1655 Rocket 4.0 01:49:20 10° N 01:55:41 61° E 02:01:56 10° SSE
Landsat 5 4.3 01:54:55 21° N 01:57:17 46° WNW 02:01:06 10° SW
Meteor 2-15 4.4 01:57:00 10° S 02:03:08 84° W 02:08:30 14° N
Cosmos 2082 Rocket 3.5 01:57:58 10° SW 02:03:11 37° WNW 02:07:32 14° N
SL-16 R/B 4.1 01:59:09 10° N 02:00:18 15° N 02:00:18 15° N
DMSP B5D1-3 4.3 02:04:29 78° ENE 02:04:40 80° ESE 02:09:46 10° S
H-2A R/B 4.3 02:10:33 16° S 02:10:33 16° S 02:11:26 10° S
SL-24 R/B - RUBIN 2 4.1 02:03:42 10° NNW 02:07:07 52° NW 02:07:07 52° NW
Meteor 1-27 Rocket 4.5 02:03:21 10° S 02:06:40 36° SSE 02:06:40 36° SSE
COSMOS 2455 4.4 02:06:07 10° WSW 02:11:21 30° NW 02:15:24 15° N
Cosmos 2278 3.7 02:11:50 10° NNW 02:17:34 78° WSW 02:18:58 52° S
IRAS Rocket 4.1 02:19:15 83° NW 02:19:24 85° WNW 02:24:55 10° SSW
CZ-2C R/B 3.5 02:19:41 10° SW 02:21:18 20° SSW 02:21:18 20° SSW
CZ-4C R/B 2.9 02:22:13 10° NNW 02:29:50 87° NE 02:32:00 56° SE
ATLAS 3B CENTAUR R/B 4.5 03:29:38 10° W 03:46:04 55° SSW 03:46:04 55° SSW
Cosmos 1943 Rocket 4.3 10:53:03 19° NE 10:53:03 19° NE 10:54:40 10° NE
Cosmos 2082 Rocket 4.3 11:03:19 18° SSE 11:03:19 18° SSE 11:04:41 10° SSE
CENTAUR R/B 3.4 11:25:01 39° NNE 11:25:01 39° NNE 11:29:18 10° NNE
Meteor 2-3 Rocket 4.1 11:22:56 10° S 11:28:29 62° E 11:34:06 10° NNE
Cosmos 2344 4.0 11:33:42 43° NNW 11:33:42 43° NNW 11:39:28 10° NNE
Hubble Space Telescope 3.4 11:39:46 13° SSE 11:39:46 13° SSE 11:40:40 10° SSE
Cosmos 1782 4.5 11:38:31 31° E 11:38:31 31° E 11:41:55 10° SE
NOSS 3-2 (C) 3.6 11:43:35 51° N 11:43:35 51° N 11:48:25 10° NNE
Cosmos 1570 Rocket 4.0 11:44:24 77° ENE 11:44:25 77° ENE 11:49:40 10° SSE
Gbstr 26 Del rocket 3.7 11:51:15 46° ESE 11:51:15 46° ESE 11:54:21 10° SE
H-2A R/B 4.0 11:47:14 10° NNE 11:50:45 39° E 11:54:17 10° S
COSMO-SKYMED 1 4.3 11:47:22 10° SE 11:51:09 30° ENE 11:54:37 12° NNE
Cosmos 1814 Rocket 4.0 11:53:38 63° SSW 11:53:38 63° SSW 11:58:00 10° S
